Content
SEND FEEDBACK

Daily
Averages
Monthly
Summary
United States of America

PAAKEA, HAWAII


Home > North America > United States > Hawaii
Elevation: 366 meters     Latitude: 20 49N     Longitude: 156 07W

WEATHER
 
SELECT A DAY
Number of Records: 217,248;   Date Range: 1/1/95 - 8/28/14
 
SHARE

PRINT THIS DATA

[ ← Previous Day ]
WEATHER ALMANAC - 31 JANUARY, 2013
[ Next Day → ]
[ °F ]   °C
Weather ElementAverageHighLow
Temperature22.5 °C25 °C (1:54 pm)21 °C (9:29 am)
Dewpoint19.7 °C21 °C (7:54 am)18.3 °C (5:54 pm)
Humidity84 %94 % (7:54 am)74 % (1:54 pm)
Barometer1018.6 hPa1020.3 hPa (8:54 pm)1016.9 hPa (3:36 am)
Wind Speed16.4 km/h31.5 km/h (11:54 pm)
Wind Gust44.4 km/h (11:54 pm)
Weather ElementAverage
Visibility15 km
Wind DirectionNE (47.6 °)

Weather ElementTotal
Precipitation23.88 mm
Cooling Degree Days4.7 (Base 18.3)
Growing Degree Days13 (Base 10)
Averaged from 33 records on 31 January, 2013
WEATHER CONDITIONS BREAKOUT
WIND DIRECTION BREAKOUT
WEATHER BY HOUR - 31 JANUARY, 2013
[ °F ]   °C
Local TimeTemperatureDewpointHumidityBarometerVisibilityWind DirectionWind SpeedGust SpeedPrecipitationEventsConditions
1:05 AM22 °C19 °C83 %1017.6 hPa16.1 kmNE (40°)9.3 km/hMostly Cloudy
1:54 AM22.2 °C20 °C87 %1017.9 hPa16.1 kmNE (50°)7.4 km/hMostly Cloudy
2:17 AM22 °C19 °C83 %1017.3 hPa16.1 kmCalmMostly Cloudy
2:54 AM22.8 °C20 °C84 %1017.6 hPa16.1 kmNNE (20°)16.7 km/hMostly Cloudy
3:36 AM23 °C20 °C83 %1016.9 hPa16.1 kmNNE (20°)16.7 km/hMostly Cloudy
3:54 AM22.8 °C19.4 °C81 %1017.3 hPa16.1 kmNNE (30°)18.5 km/hMostly Cloudy
4:34 AM23 °C19 °C78 %1016.9 hPa16.1 kmNNE (30°)20.4 km/hMostly Cloudy
4:54 AM22.2 °C19.4 °C84 %1017.3 hPa16.1 kmNE (50°)13 km/h0 mmRainLight Rain
5:04 AM22 °C20 °C88 %1016.9 hPa16.1 kmENE (60°)11.1 km/h0 mmRainLight Rain
5:54 AM22.2 °C20.6 °C91 %1017.6 hPa16.1 kmNE (50°)13 km/h0.51 mmRainLight Rain
6:54 AM21.7 °C20 °C90 %1018.3 hPa14.5 kmNE (50°)9.3 km/h0.76 mmRainLight Rain
7:54 AM22 °C21 °C94 %1019 hPa16.1 kmENE (70°)9.3 km/h1.52 mmMostly Cloudy
8:54 AM22.8 °C20.6 °C87 %1019.3 hPa16.1 kmNE (40°)14.8 km/h0.25 mmRainLight Rain
8:58 AM23 °C21 °C88 %1019 hPa16.1 kmNE (50°)13 km/h0 mmRainLight Rain
9:15 AM22 °C19 °C83 %1019.3 hPa3.2 kmEast (80°)9.3 km/h0 mmRainLight Rain
9:29 AM21 °C19 °C88 %1019.3 hPa11.3 kmENE (70°)11.1 km/h3.05 mmRainHeavy Rain
9:41 AM21 °C19 °C88 %1019.3 hPa11.3 kmEast (80°)7.4 km/h3.81 mmRainRain
9:54 AM21.7 °C20 °C90 %1020 hPa4.8 kmENE (60°)11.1 km/h9.4 mmRainRain
10:54 AM22.8 °C20.6 °C87 %1020 hPa16.1 kmNE (50°)20.4 km/h4.06 mmRainLight Rain
11:54 AM23.3 °C20.6 °C85 %1019.6 hPa12.9 kmNE (50°)24.1 km/h0 mmRainLight Rain
12:54 PM23.3 °C20 °C82 %1019 hPa16.1 kmNE (40°)22.2 km/h0.25 mmRainLight Rain
1:54 PM25 °C20 °C74 %1018.3 hPa16.1 kmNE (40°)24.1 km/h0 mmOvercast
2:54 PM24.4 °C20.6 °C79 %1017.9 hPa16.1 kmNE (40°)25.9 km/hMostly Cloudy
3:54 PM23.9 °C19.4 °C76 %1017.9 hPa16.1 kmNE (40°)25.9 km/hMostly Cloudy
4:54 PM22.8 °C18.9 °C79 %1018.3 hPa16.1 kmENE (60°)20.4 km/h0 mmOvercast
5:54 PM22.8 °C18.3 °C76 %1018.6 hPa16.1 kmNE (50°)14.8 km/hScattered Clouds
6:54 PM22.2 °C18.9 °C81 %1019 hPa16.1 kmNE (50°)13 km/hMostly Cloudy
7:54 PM21.7 °C19.4 °C87 %1019.6 hPa16.1 kmENE (60°)16.7 km/h0.25 mmRainLight Rain
8:54 PM21.7 °C19.4 °C87 %1020.3 hPa16.1 kmENE (60°)16.7 km/h0 mmRainLight Rain
9:54 PM22.2 °C18.9 °C81 %1020.3 hPa16.1 kmNE (50°)25.9 km/h0 mmRainLight Rain
10:54 PM22.2 °C19.4 °C84 %1020.3 hPa16.1 kmNE (40°)25.9 km/h0 mmMostly Cloudy
11:43 PM22 °C19 °C83 %1019.3 hPa16.1 kmNE (50°)24.1 km/h35.2 km/h0 mmRainLight Rain
11:54 PM22.2 °C18.9 °C81 %1019.6 hPa16.1 kmNE (40°)31.5 km/h44.4 km/h0 mmScattered Clouds
Hourly data recorded from PHOG, located 0 kilometers away from Paakea, Hawaii







STORIES FROM OUR PARTNERS